Weather History for KOEB - November, 2012

Change the Weather History Date:

Monday, November 12, 2012

  Actual Average (KJYM) Record (KJYM)
Temperature  
Mean Temperature 46 °F -  
Max Temperature 61 °F 46 °F 70 °F (1964)
Min Temperature 32 °F 28 °F 13 °F (1976)
Degree Days  
Heating Degree Days 18    
Moisture  
Dew Point 34 °F    
Average Humidity 77    
Maximum Humidity 94    
Minimum Humidity 43    
Precipitation  
Precipitation 0.00 in - - ()
Sea Level Pressure  
Sea Level Pressure 30.06 in    
Wind  
Wind Speed 13 mph (WSW)    
Max Wind Speed 20 mph    
Max Gust Speed 30 mph    
Visibility 9 miles    
Events Rain , Snow    
Averages and records for this station are not official NWS values.
T = Trace of Precipitation, MM = Missing Value Source: NWS Daily Summary

Daily Weather History Graph

Daily Weather History Graph

Search for Another Location

Airport or City:

Trip Planner

Search our weather history database for the weather conditions in past years. The results will help you decide how hot, cold, wet, or windy it might be!

Date:

Astronomy

Nov. 12, 2012 Rise Set
Actual Time 7:26 AM EST 5:21 PM EST
Civil Twilight 6:57 AM EST 5:51 PM EST
Nautical Twilight 6:23 AM EST 6:24 PM EST
Astronomical Twilight 5:50 AM EST 6:57 PM EST
Moon 5:50 AM EST (11/12) 4:26 PM EST (11/12)
Length of Visible Light 10h 54m
Length of Day
9h 54m
Waning Crescent, 2% of the Moon is Illuminated
Nov 12
Waning Crescent
Nov 13
New
Nov 20
First Quarter
Nov 28
Full
Dec 6
Last Quarter

Hourly Weather History & Observations

Time (EST) Temp. Windchill Dew Point Humidity Pressure Visibility Wind Dir Wind Speed Gust Speed Precip Events Conditions
12:15 AM 61.7 °F - 39.2 °F 43% 29.92 in 10.0 mi South 13.8 mph 20.7 mph N/A   Overcast
12:34 AM 61.5 °F - 40.3 °F 46% 29.91 in 10.0 mi South 10.4 mph 19.6 mph N/A Rain Rain
1:15 AM 59.5 °F - 44.2 °F 57% 29.90 in 10.0 mi SSW 13.8 mph 24.2 mph N/A Rain Light Rain
1:55 AM 59.9 °F - 46.0 °F 60% 29.90 in 10.0 mi SSW 13.8 mph 21.9 mph N/A   Overcast
2:15 AM 59.0 °F - 49.1 °F 70% 29.91 in 10.0 mi SSW 18.4 mph 28.8 mph N/A   Light Drizzle
2:34 AM 57.7 °F - 51.3 °F 79% 29.91 in 10.0 mi SSW 13.8 mph 29.9 mph N/A Rain Rain
2:55 AM 55.0 °F - 51.8 °F 89% 29.93 in 5.0 mi WSW 11.5 mph 17.3 mph N/A Rain Rain
3:14 AM 52.7 °F - 50.5 °F 92% 29.92 in 10.0 mi WSW 8.1 mph 16.1 mph N/A Rain Rain
3:34 AM 52.0 °F - 50.2 °F 94% 29.92 in 7.0 mi SW 4.6 mph - N/A Rain Light Rain
4:14 AM 51.8 °F - 50.2 °F 94% 29.92 in 7.0 mi SSW 9.2 mph - N/A Rain Rain
4:34 AM 51.8 °F - 50.0 °F 94% 29.91 in 7.0 mi SW 9.2 mph - N/A Rain Rain
4:54 AM 51.3 °F - 49.5 °F 94% 29.91 in 7.0 mi SW 8.1 mph - N/A Rain Rain
5:14 AM 51.1 °F - 49.5 °F 94% 29.93 in 7.0 mi SW 9.2 mph - N/A Rain Rain
5:35 AM 50.9 °F - 49.3 °F 94% 29.91 in 7.0 mi SW 8.1 mph - N/A Rain Rain
5:54 AM 50.9 °F - 49.3 °F 94% 29.91 in 10.0 mi SW 9.2 mph - N/A Rain Light Rain
6:14 AM 45.9 °F 38.5 °F 43.5 °F 92% 29.93 in 7.0 mi WNW 18.4 mph 23.0 mph N/A Rain Light Rain
6:35 AM 44.8 °F 38.7 °F 42.8 °F 93% 29.95 in 10.0 mi West 12.7 mph 21.9 mph N/A Rain Light Rain
6:54 AM 44.1 °F 38.1 °F 42.1 °F 93% 29.95 in 4.0 mi West 11.5 mph - N/A   Overcast
7:54 AM 42.8 °F 38.0 °F 40.8 °F 93% 29.96 in 7.0 mi West 8.1 mph - N/A Rain Light Rain
8:15 AM 42.8 °F 37.0 °F 40.6 °F 92% 29.98 in 10.0 mi WSW 10.4 mph - N/A Rain Rain
8:34 AM 41.9 °F 34.0 °F 39.7 °F 92% 29.97 in 7.0 mi West 16.1 mph - N/A Rain Light Rain
8:54 AM 40.6 °F 33.0 °F 38.3 °F 91% 29.98 in 7.0 mi West 13.8 mph 18.4 mph N/A   Overcast
9:15 AM 40.5 °F 33.2 °F 38.1 °F 91% 30.00 in 10.0 mi West 12.7 mph 19.6 mph N/A Rain Light Rain
9:34 AM 39.7 °F 30.3 °F 37.4 °F 91% 30.00 in 3.0 mi West 19.6 mph 25.3 mph N/A Rain Light Rain
9:54 AM 38.8 °F 30.8 °F 36.5 °F 91% 30.01 in 4.0 mi West 13.8 mph 18.4 mph N/A Rain Light Rain
10:15 AM 38.1 °F 29.5 °F 35.8 °F 91% 30.03 in 5.0 mi West 15.0 mph 20.7 mph N/A Rain Light Rain
10:54 AM 35.1 °F 26.4 °F 33.6 °F 94% 30.04 in 2.5 mi WSW 12.7 mph 16.1 mph N/A Snow Light Snow
11:15 AM 36.3 °F 28.9 °F 34.7 °F 94% 30.04 in 7.0 mi WSW 10.4 mph - N/A   Overcast
11:34 AM 36.7 °F 29.4 °F 33.1 °F 87% 30.04 in 10.0 mi WSW 10.4 mph 21.9 mph N/A   Overcast
11:55 AM 36.1 °F 25.9 °F 32.5 °F 87% 30.04 in 10.0 mi West 18.4 mph - N/A   Overcast
12:15 PM 35.6 °F 25.9 °F 32.0 °F 87% 30.05 in 10.0 mi West 16.1 mph 20.7 mph N/A   Overcast
12:34 PM 35.1 °F 25.5 °F 31.5 °F 87% 30.05 in 10.0 mi West 15.0 mph 23.0 mph N/A   Overcast
12:55 PM 34.7 °F 23.7 °F 30.4 °F 84% 30.05 in 10.0 mi West 19.6 mph 25.3 mph N/A   Overcast
1:34 PM 34.3 °F 24.2 °F 29.8 °F 84% 30.06 in 10.0 mi WSW 16.1 mph 23.0 mph N/A   Overcast
1:55 PM 34.7 °F 25.9 °F 29.5 °F 81% 30.06 in 10.0 mi WSW 12.7 mph 19.6 mph N/A   Overcast
2:14 PM 36.0 °F 25.3 °F 28.6 °F 75% 30.07 in 10.0 mi WSW 19.6 mph 24.2 mph N/A   Overcast
2:34 PM 37.0 °F 28.1 °F 28.4 °F 71% 30.07 in 10.0 mi WSW 15.0 mph 20.7 mph N/A   Mostly Cloudy
2:55 PM 37.0 °F 27.7 °F 27.3 °F 68% 30.08 in 10.0 mi West 16.1 mph 20.7 mph N/A   Mostly Cloudy
3:34 PM 38.7 °F 30.1 °F 26.4 °F 61% 30.07 in 10.0 mi WSW 15.0 mph 24.2 mph N/A   Mostly Cloudy
3:55 PM 37.8 °F 29.4 °F 25.9 °F 62% 30.08 in 10.0 mi West 13.8 mph 19.6 mph N/A   Scattered Clouds
4:14 PM 37.0 °F 27.4 °F 23.7 °F 59% 30.09 in 10.0 mi West 17.3 mph 21.9 mph N/A   Clear
4:35 PM 36.5 °F 27.8 °F 23.7 °F 60% 30.11 in 10.0 mi WSW 13.8 mph 23.0 mph N/A   Clear
4:55 PM 35.6 °F 26.2 °F 23.4 °F 61% 30.11 in 10.0 mi WSW 15.0 mph 19.6 mph N/A   Mostly Cloudy
5:14 PM 35.1 °F 26.9 °F 23.9 °F 64% 30.12 in 10.0 mi WSW 11.5 mph 18.4 mph N/A   Overcast
5:35 PM 35.1 °F 26.4 °F 23.4 °F 62% 30.13 in 10.0 mi West 12.7 mph - N/A   Overcast
5:54 PM 33.1 °F 24.4 °F 23.2 °F 67% 30.15 in 10.0 mi West 11.5 mph 16.1 mph N/A   Mostly Cloudy
6:14 PM 32.5 °F 24.8 °F 23.7 °F 70% 30.16 in 10.0 mi West 9.2 mph - N/A   Mostly Cloudy
6:35 PM 33.1 °F 24.9 °F 24.1 °F 70% 30.17 in 10.0 mi West 10.4 mph - N/A   Overcast
6:54 PM 33.6 °F 24.1 °F 23.9 °F 68% 30.18 in 10.0 mi WSW 13.8 mph 19.6 mph N/A   Overcast
7:14 PM 33.1 °F 24.4 °F 23.2 °F 67% 30.18 in 10.0 mi WSW 11.5 mph 18.4 mph N/A   Overcast
7:54 PM 32.9 °F 23.2 °F 23.4 °F 68% 30.19 in 10.0 mi WSW 13.8 mph - N/A   Overcast
8:14 PM 32.9 °F 23.7 °F 23.0 °F 67% 30.20 in 10.0 mi WSW 12.7 mph - N/A   Overcast
8:34 PM 32.9 °F 23.7 °F 22.8 °F 66% 30.20 in 10.0 mi WSW 12.7 mph 19.6 mph N/A   Overcast
8:54 PM 33.1 °F 23.0 °F 22.8 °F 66% 30.21 in 10.0 mi WSW 15.0 mph 21.9 mph N/A   Overcast
9:15 PM 33.3 °F 25.1 °F 22.8 °F 66% 30.21 in 10.0 mi WSW 10.4 mph - N/A   Overcast
9:34 PM 33.4 °F 23.5 °F 23.0 °F 66% 30.22 in 10.0 mi WSW 15.0 mph 20.7 mph N/A   Overcast
9:54 PM 33.4 °F 25.4 °F 23.0 °F 66% 30.23 in 10.0 mi WSW 10.4 mph - N/A   Overcast
10:15 PM 33.6 °F 23.3 °F 23.2 °F 66% 30.24 in 10.0 mi WSW 16.1 mph 24.2 mph N/A   Overcast
10:34 PM 33.4 °F 23.5 °F 23.2 °F 66% 30.25 in 10.0 mi WSW 15.0 mph 19.6 mph N/A   Overcast
10:55 PM 33.8 °F 23.9 °F 23.4 °F 66% 30.25 in 10.0 mi WSW 15.0 mph 25.3 mph N/A   Overcast
11:15 PM 33.6 °F 24.1 °F 23.7 °F 67% 30.26 in 10.0 mi WSW 13.8 mph 20.7 mph N/A   Overcast
11:34 PM 33.1 °F 23.9 °F 24.8 °F 72% 30.26 in 10.0 mi West 12.7 mph 23.0 mph N/A   Overcast
11:55 PM 32.9 °F 22.8 °F 25.5 °F 74% 30.26 in 7.0 mi West 15.0 mph 21.9 mph N/A Snow Light Snow